Regional Weather Roundup
Issued by NWS

Home | Current Version | Previous Version | Graphics & Text | Print | Product List | Glossary On
Versions: 1 2 3 4 5 6 7 8 9 10 11 12 13 14 15 16 17 18 19 20 21 22 23 24 25 26 27 28 29 30 31 32 33 34 35 36 37 38 39 40 41 42 43 44 45 46 47 48 49 50
000
ASUS45 KBOU 261407
RWRCO

WEATHER ROUNDUP FOR COLORADO
NATIONAL WEATHER SERVICE DENVER/BOULDER CO
700 AM MST WED NOV 26 2014

NOTE: "FAIR" INDICATES FEW OR NO CLOUDS BELOW 12000 FEET WITH NO
SIGNIFICANT WEATHER AND/OR OBSTRUCTIONS TO VISIBILITY.

COZ001>005-013-030-031-261500-
...NORTHWEST COLORADO...

CITY           SKY/WX    TMP DP  RH WIND       PRES   REMARKS
CRAIG          CLOUDY    31  26  82 CALM      30.27R
HAYDEN         CLOUDY    30  25  80 CALM      30.26R
MEEKER         CLOUDY    32  25  75 CALM      30.30R
MOUNT WERNER   NOT AVBL
STEAMBOAT SPGS CLOUDY    32  30  92 CALM      30.26R
WALDEN         MOCLDY    34  27  75 W21G30    30.17R WCI  22
$$

COZ006>008-011-261500-
...WEST CENTRAL VALLEYS...

CITY           SKY/WX    TMP DP  RH WIND       PRES   REMARKS
GRAND JUNCTION PTCLDY    22  17  81 E5        30.36R WCI  16
MONTROSE       CLEAR     29  20  69 S5        30.37R WCI  24
EAGLE          CLOUDY    36  25  64 W8        30.32R
RIFLE          PTCLDY    23  19  85 CALM      30.37R
DELTA          CLEAR     31  24  76 CALM      30.38R
NUCLA          CLEAR     30  23  74 CALM      30.41S
$$

COZ017>023-064>068-261500-
...SOUTHWEST COLORADO...

CITY           SKY/WX    TMP DP  RH WIND       PRES   REMARKS
DURANGO        PTCLDY    20  12  71 E5        30.33R WCI  13
CORTEZ         CLEAR     21  16  81 E7        30.37R WCI  12
PAGOSA SPRINGS PTCLDY    16   9  74 CALM      30.34R
TELLURIDE      NOT AVBL
WOLF CREEK PAS PTCLDY    19  18  93 MISG      30.35S
$$

COZ009-010-012-014-032>034-037-058>063-261500-
...CENTRAL COLORADO...

CITY           SKY/WX    TMP DP  RH WIND       PRES   REMARKS
ASPEN          CLOUDY    26  23  88 CALM      30.33R
BUENA VISTA    PTCLDY    35  21  57 W5        30.19R WCI  31
COPPER MTN     NOT AVBL
BERTHOUD PASS  NOT AVBL
COTTONWOOD PAS LGT SNOW  34  21  60 W23G56    30.15S WCI  22
GUNNISON       CLOUDY    28  21  74 CALM      30.38R
KREMMLING      CLOUDY    32  27  80 SW16G23   30.26R WCI  21
LEADVILLE      LGT SNOW  25  22  88 NW12      30.28R FOG     WCI  14
MONARCH PASS   CLOUDY    21  19  93 MISG      30.33F
SALIDA         PTCLDY    42  23  47 W13G35    30.26R
SUNLIGHT       CLOUDY   N/A N/A N/A CALM      30.35R
WILKERSON PASS PTCLDY    23  19  86 NW9G18    30.23R WCI  13
$$

COZ069>075-261500-
...SAN LUIS VALLEY/SANGRE DE CRISTO MOUNTAINS...

CITY           SKY/WX    TMP DP  RH WIND       PRES   REMARKS
ALAMOSA        MOCLDY    12   6  77 SW5       30.30R WCI   4
LA VETA PASS   PTCLDY    23  18  80 S13G23    30.23R WCI  11
SAGUACHE       NOT AVBL
$$

COZ035-036-038>040-261500-
...NORTHERN COLORADO FRONT RANGE...

CITY           SKY/WX    TMP DP  RH WIND       PRES   REMARKS
DENVER INTL AP MOCLDY    24  20  84 SE6       30.20S WCI  17
DMNS CITY PARK   N/A     28  20  72 E6        30.20S WCI  21
AURORA         MOCLDY    25  20  82 SE6       30.20S WCI  18
FRONT RANGE AP CLOUDY    30  23  74 CALM      30.20F
ERIE MUNI ARPT CLOUDY    28  25  88 S6        30.22R WCI  21
BOULDER MUN AP CLOUDY    30  25  80 S8        30.20S WCI  23
CENTENNIAL     CLOUDY    26  21  81 SE6       30.20R WCI  19
BROOMFIELD     MOCLDY    27  25  93 S6        30.20R WCI  20
FORT COLLINS   CLOUDY    28  21  74 SE6       30.22R WCI  22
LONGMONT       CLOUDY    31  26  81 S8        30.22F WCI  23
$$

COZ041-046-047-076>085-087-088-261500-
...PIKES PEAK/PALMER DIVIDE AND SOUTHERN FOOTHILLS...

CITY           SKY/WX    TMP DP  RH WIND       PRES   REMARKS
COLO. SPRINGS  CLOUDY    27  24  89 S7        30.20F WCI  19
A. F. ACADEMY  CLOUDY    25  22  86 SE2       30.17F
ELLICOTT       NOT AVBL
FALCON         NOT AVBL
FORT CARSON    CLOUDY    28  24  85 S7        30.19F WCI  21
LIMON          CLOUDY    24  21  88 NW12      30.21R WCI  13
MONUMENT HILL  PTCLDY    18  16  93 CALM      30.16R
TRINIDAD       PTCLDY    25  22  88 S5        30.23R WCI  19
$$

COZ042>045-048>051-090-091-261500-
...NORTHEAST COLORADO...

CITY           SKY/WX    TMP DP  RH WIND       PRES   REMARKS
GREELEY ARPT   CLOUDY    28  19  69 NW6       30.22S WCI  22
AKRON          LGT SNOW  26  25  96 NW9       30.18S VSB 1   WCI  17
BURLINGTON     CLOUDY    28  24  85 NW16      30.19R WCI  16
WRAY           CLOUDY    31  30  93 W15       30.20R WCI  21
STERLING       LGT SNOW  32  32 100 NW7       30.22R WCI  26
HOLYOKE        MOCLDY    34  27  75 NW9       30.20R WCI  26
FORT MORGAN    CLOUDY    27  24  91 W5        30.22S WCI  21
$$

COZ086-089-092>099-261500-
...SOUTHEAST COLORADO...

CITY           SKY/WX    TMP DP  RH WIND       PRES   REMARKS
PUEBLO         MOCLDY    27  23  85 SE3       30.24R
LA JUNTA       PTCLDY    27  24  89 W10       30.25R WCI  17
LAMAR          PTCLDY    25  22  88 MISG      30.24R
SPRINGFIELD      N/A     24  22  91 W10       30.24R WCI  14
$$


USA.gov is the U.S. government's official web portal to all federal, state and local government web resources and services.